{"data":{"norad_id":41887,"intl_designator":"2016-078D","name":"CYGFM01","alt_names":[],"object_type":"PAYLOAD","status":"INACTIVE","operator":null,"country":"US","launch_date":"2016-12-15","launch_site_code":"ERAS","launch_vehicle":null,"mission":null,"orbit_class":"UNKNOWN","rcs_meters":0.234,"size_class":null,"mass_kg":null,"dimensions":null,"purposes":["earth_obs"],"wikipedia_slug":null,"has_3d_model":false,"image_url":null,"decayed_at":null,"tle_current":{"epoch":"2026-05-25T03:31:31.309824Z","epoch_age_seconds":59029,"freshness":"FRESH","line1":"1 41887U 16078D   26145.14689016  .00023087  00000+0  31853-3 0  9995","line2":"2 41887  34.9410  54.2722 0008785 286.1793  73.7964 15.56158820525118","mean_motion":15.5615882,"eccentricity":0.0008785,"inclination_deg":34.941,"raan_deg":54.2722,"arg_perigee_deg":286.1793,"mean_anomaly_deg":73.7964,"bstar":0.00031853,"rev_number":52511,"period_min":92.53554209846,"perigee_km":392.83264618485,"apogee_km":404.73970020014,"semimajor_km":6776.9231731925,"source":"CELESTRAK","updated_at":"2026-05-25T13:38:11.919628Z"}}}